This is the latest recevied weather packets stored in our database for station/object KF7SOJ. If no packets are shown the sender has not sent any weather packets the latest 10 day(s).
| Time | Temp. | Humidity | Pressure | Rain* | Wind** | Luminosity | Snow |
|---|---|---|---|---|---|---|---|
| 1777767985 | 18.89° C | 34% | 931.3 hPa | 0 mm | - | 119 W/m² | - |
| 1777767681 | 19.44° C | 36% | 931.1 hPa | 0 mm | - | 130 W/m² | - |
| 1777767377 | 19.44° C | 35% | 931.1 hPa | 0 mm | - | 147 W/m² | - |
| 1777767075 | 20° C | 34% | 931.3 hPa | 0 mm | - | 183 W/m² | - |
| 1777766772 | 20° C | 34% | 931.3 hPa | 0 mm | - | 221 W/m² | - |
| 1777766469 | 20° C | 34% | 931.3 hPa | 0 mm | - | 291 W/m² | - |
| 1777766166 | 20° C | 33% | 931.3 hPa | 0 mm | - | 222 W/m² | - |
| 1777765864 | 20.56° C | 33% | 931.4 hPa | 0 mm | - | 302 W/m² | - |
| 1777765559 | 20.56° C | 34% | 931.5 hPa | 0 mm | - | 397 W/m² | - |
| 1777765257 | 20° C | 34% | 931.4 hPa | 0 mm | - | 368 W/m² | - |
| 1777764957 | 20° C | 33% | 931.4 hPa | 0 mm | - | 285 W/m² | - |
| 1777764655 | 20.56° C | 33% | 931.3 hPa | 0 mm | - | 276 W/m² | - |
| 1777764351 | 21.11° C | 30% | 931.6 hPa | 0 mm | - | 252 W/m² | - |
| 1777764048 | 21.11° C | 31% | 931.3 hPa | 0 mm | - | 448 W/m² | - |
| 1777763745 | 21.67° C | 31% | 931.4 hPa | 0 mm | - | 319 W/m² | - |
| 1777763443 | 21.67° C | 30% | 931.6 hPa | 0 mm | - | 602 W/m² | - |
| 1777763141 | 20.56° C | 29% | 931.6 hPa | 0 mm | - | 689 W/m² | - |
| 1777762839 | 20.56° C | 31% | 931.5 hPa | 0 mm | - | 375 W/m² | - |
| 1777762534 | 21.11° C | 31% | 931.6 hPa | 0 mm | - | 546 W/m² | - |
| 1777762232 | 20.56° C | 33% | 931.7 hPa | 0 mm | - | 473 W/m² | - |
| 1777761928 | 20.56° C | 32% | 931.5 hPa | 0 mm | - | 380 W/m² | - |
| 1777761625 | 21.11° C | 33% | 931.8 hPa | 0 mm | - | 411 W/m² | - |
| 1777761323 | 21.11° C | 31% | 931.7 hPa | 0 mm | - | 648 W/m² | - |
| 1777761021 | 20.56° C | 32% | 931.9 hPa | 0 mm | - | 537 W/m² | - |
| 1777760718 | 20.56° C | 31% | 932 hPa | 0 mm | - | 471 W/m² | - |
* Rain latest hour (hover to see other rain measurements)
** Current wind speed in m/s (hover to see current wind gust speed)